Regional Weather Roundup
Issued by NWS Lake Charles, LA

Home | Current Version | Previous Version | Text Only | Print | Product List | Glossary On
Versions: 1 2 3 4 5 6 7 8 9 10 11 12 13 14 15 16 17 18 19 20 21 22 23 24 25 26 27 28
000
ASUS44 KLCH 310610
RWRLCH
REGIONAL WEATHER ROUNDUP
NATIONAL WEATHER SERVICE LAKE CHARLES LA
100 AM CDT TUE MAY 31 2016

Note: "fair" indicates few or no clouds below 12,000 feet with no
significant weather and/or obstructions to visibility.


ACROSS SOUTHEAST TEXAS

CITY           SKY/WX    TMP DP  RH WIND       PRES   REMARKS
BEAUMONT       CLOUDY    71  70  96 CALM      29.94F FOG
BEAUMONT CITY  FAIR      73  71  92 S3        29.96S
ORANGE         PTCLDY    71  69  93 CALM      29.97F FOG
JASPER         CLEAR     69  68  96 CALM      29.98S FOG
$$

ACROSS CENTRAL LOUISIANA

CITY           SKY/WX    TMP DP  RH WIND       PRES   REMARKS
LEESVILLE      NOT AVBL
FULLERTON      FAIR      73  69  87 CALM      29.93F
ALEXANDRIA INT CLEAR     73  70  90 SE3       29.92F
ESLER FIELD    CLEAR     71  68  90 CALM      29.94F
DERIDDER       FAIR      73  72  96 CALM      29.97S
OAKDALE        CLOUDY    71  70  98 CALM      29.95F
OPELOUSAS      FAIR      73  71  93 CALM      29.95F
$$

ACROSS SOUTHWEST AND SOUTH CENTRAL LOUISIANA

CITY           SKY/WX    TMP DP  RH WIND       PRES   REMARKS
SULPHUR        PTCLDY    75  73  93 CALM      29.96S
LAKE CHARLES   CLOUDY    72  71  97 CALM      29.95F
CHENNAULT INT  NOT AVBL
CAMERON PHI    PTCLDY    79  72  78 SW6       29.98F
DEQUINCY       FAIR      69  69 100 CALM      29.96S
JENNINGS       FAIR      73  72  94 CALM      29.95F
LAFAYETTE      CLEAR     75  71  87 CALM      29.96F
NEW IBERIA     PTCLDY    73  70  90 CALM      29.96F
ABBEVILLE      FAIR      73  72  98 CALM      29.96F
PATTERSON      CLEAR     72  71  97 CALM      29.96F
SALT POINT       N/A     78  73  84 CALM      29.94F
$$

SELECTED SITES ACROSS THE REGION

CITY           SKY/WX    TMP DP  RH WIND       PRES   REMARKS
HOUSTON BUSH   MOCLDY    73  70  90 S3        29.94F
HOUSTON HOBBY  PTCLDY    74  71  91 CALM      29.94F
GALVESTON      PTCLDY    78  74  87 S9        29.96S
COLLEGE STAT   PTCLDY    75  71  87 S5        29.94F
CONROE         PTCLDY    71  70  96 CALM        N/A
HUNTSVILLE     PTCLDY    75  70  84 S6        29.95F
LUFKIN         CLOUDY    69  67  93 CALM      29.94F
SHREVEPORT     PTCLDY    73  70  90 CALM      29.92S
MONROE         CLOUDY    72  71  97 CALM      29.95S
NATCHEZ MS     CLEAR     70  64  83 CALM      29.94F
BATON ROUGE    CLEAR     72  68  87 CALM      29.95F
N.O. INTL ARPT PTCLDY    75  70  84 SW5       29.95F
SLIDELL        PTCLDY    74  72  93 CALM      29.94F
$$

MARINE REPORTS

STATION/POSITION TIME  SKY/WX   TEMP    WIND        PRES    VSBY
                                AIR SEA DIR/SP/G
                 (UTC)          (F)     (DEG/KT/KT) (MB)    (MI)
BUOY 30 S HIGH I 0550            80 83  200/ 10/ 12 1013.9R
WVE H/P(F/S)=  2/ 5

SEA RIM ST PARK  0600            79     210/  9/ 11 1014.7F
PORT ARTHUR      0500               80  200/  1/  2 1014.6R
SABINE PASS N    0500            77 81  210/  4/  5 1015.9R
TEXAS POINT      NOT AVBL
CALCASIEU PASS   0500            80 83  240/  4/  6 1014.0R
LK CHARLES BEACH 0500            77 78              1015.0F
MARSH ISLAND     NOT AVBL
FRESH WATER LOCK 0500            79 85  190/  5/  8 1015.3R
AMERADA PASS     0500            76 77   CALM  /  1 1014.5S
$$




USA.gov is the U.S. government's official web portal to all federal, state and local government web resources and services.